This demonstration page uses our WeatherBlox Daily Observations layout. Learn more.

Left ArrowRight Arrow

Hourly Observations for June 18, 2017

Temp ( °F °C ) Dew Point ( °F °C ) Humidity (%) Winds ( mph kmh ) Pressure ( in mb ) Visibility ( mi km ) Precip ( " mm )
12:51 am 00:51 Clear 80 26.7 18 -7.8 10 10 NW 9 15 29.65 1004 10 16 N/A
1:51 am 01:51 Clear 77 25 17 -8.3 10 10 NW 9 15 29.64 1004 10 16 N/A
2:51 am 02:51 Clear 73 22.8 17 -8.3 12 12 WNW 6 9 29.64 1004 10 16 N/A
3:51 am 03:51 Clear 69 20.6 17 -8.3 14 14 S 6 9 29.67 1005 10 16 N/A
4:51 am 04:51 Clear 67 19.4 16 -8.9 14 14 ESE 7 11 29.70 1006 10 16 N/A
5:51 am 05:51 Sunny 68 20 17 -8.3 14 14 ESE 6 9 29.71 1006 10 16 N/A
6:51 am 06:51 Sunny 75 23.9 19 -7.2 12 12 SSE 3 6 29.71 1006 10 16 N/A
7:51 am 07:51 Sunny 81 27.2 20 -6.7 10 10 SE 3 6 29.72 1006 10 16 N/A
8:51 am 08:51 Sunny 88 31.1 26 -3.3 10 10 WSW 7 11 29.69 1006 10 16 N/A
9:51 am 09:51 Sunny 97 36.1 22 -5.6 7 7 WNW 16 26 29.67 1005 10 16 N/A
10:51 am 10:51 Sunny 100 37.8 18 -7.8 5 5 NW 13 20 29.66 1004 10 16 N/A
11:51 am 11:51 Sunny 104 40 20 -6.7 5 5 W 12 19 29.63 1003 10 16 N/A
12:51 pm 12:51 Sunny 104 40 20 -6.7 5 5 N N/A 29.62 1003 10 16 N/A
1:51 pm 13:51 Sunny 107 41.7 22 -5.6 5 5 SSW 10 17 29.58 1002 10 16 N/A
2:51 pm 14:51 Sunny 109 42.8 23 -5 5 5 WNW 6 9 29.56 1001 10 16 N/A
3:51 pm 15:51 Sunny 110 43.3 18 -7.8 4 4 WSW 8 13 29.54 1001 10 16 N/A
4:51 pm 16:51 Sunny 110 43.3 14 -10 3 3 WSW 7 11 29.54 1000 10 16 N/A
5:51 pm 17:51 Sunny 108 42.2 14 -10 3 3 W 3 6 29.54 1000 10 16 N/A
6:51 pm 18:51 Sunny 106 41.1 23 -5 5 5 WNW 18 30 29.54 1000 10 16 N/A
7:51 pm 19:51 Clear 99 37.2 25 -3.9 7 7 NW 15 24 29.57 1001 10 16 N/A
10:51 pm 22:51 Clear 92 33.3 25 -3.9 9 9 NW 15 24 29.62 1003 10 16 N/A
11:51 pm 23:51 Clear 89 31.7 25 -3.9 10 10 NW 10 17 29.62 1003 10 16 N/A

Powered by AerisWeather